Regional Weather Roundup
Issued by NWS Newport/Morehead, NC

Current Version | Previous Version | Graphics & Text | Print | Product List | Glossary Off
Versions: 1 2 3 4 5 6 7 8 9 10 11 12 13 14 15 16 17 18 19 20 21 22 23 24 25 26 27 28 29 30 31 32 33 34 35 36 37 38 39 40 41 42 43 44 45 46 47 48 49 50

000
ASUS42 KMHX 052125
RWRMHX
WEATHER ROUNDUP FOR EASTERN NORTH CAROLINA
NATIONAL WEATHER SERVICE NEWPORT/MOREHEAD CITY NC
500 PM EDT SUN JUL 05 2015

NOTE: "FAIR" INDICATES FEW OR NO CLOUDS BELOW 12,000 FEET
WITH NO SIGNIFICANT WEATHER AND/OR OBSTRUCTIONS TO VISIBILITY

NCZ015>017-031-032-045>047-102-103-052200-
NORTH COAST

CITY           SKY/WX    TMP DP  RH WIND       PRES   REMARKS
EDENTON          N/A     89  73  58 S8        30.07S
ELIZABETH CITY PTSUNNY   81  76  84 NE10      30.08F
KITTY HAWK     PTCLDY    89  74  61 S7        30.08F
MANTEO         SUNNY     84  76  76 S13       30.08F

$$

NCZ045>047-081-094-103-104-052200-
CENTRAL COAST

CITY           SKY/WX    TMP DP  RH WIND       PRES   REMARKS
FRISCO         SUNNY     82  75  79 SW12      30.12F
SWANQUARTER      N/A     90 N/A N/A S10       30.03F

$$

NCZ095-097-098-100-101-052200-
SOUTHERN COAST

CITY           SKY/WX    TMP DP  RH WIND       PRES   REMARKS
BEAUFORT       MOSUNNY   84  76  76 SW13      30.10F
CEDAR ISLAND     N/A     88 N/A N/A S14G20    30.12F
JACKSONVILLE   SUNNY     87  66  49 S14       30.08F
PINEY ISLAND   CLEAR    N/A N/A N/A SW14      30.09F
WILMINGTON     MOSUNNY   88  72  58 S16G23    30.08F


$$

NCZ011>013-027>030-043-044-078>080-089-090>093-098-052200-
COASTAL PLAIN

CITY           SKY/WX    TMP DP  RH WIND       PRES   REMARKS
AHOSKIE        PTSUNNY  N/A N/A N/A NE3       30.07S
CLINTON        SUNNY     90  72  55 S7        30.06F
ELIZABETHTOWN  MOSUNNY   87  72  61 S5        30.07S
GOLDSBORO      MOSUNNY   91  72  54 S8        30.04F
GREENVILLE     MOSUNNY   90  70  51 S12       30.07F
HAVELOCK       SUNNY     87  67  51 S13       30.10F
KENANSVILLE    SUNNY     90  66  45 SW7       30.07F
KINSTON        MOSUNNY   91  66  43 S9        30.07F
NEW BERN       SUNNY     89  71  55 S10       30.09F
RICHLANDS      SUNNY     90  68  48 S13G18    30.07F
ROCKY MOUNT    PTSUNNY   90  70  51 S8        30.06S
WASHINGTON     MOSUNNY   87  70  57 S9        30.07S
WHITEVILLE     MOSUNNY   88  73  60 S9        30.08S

$$

AMZ130-135-150-152-154-156-158-170-250-252-270-ANZ085-086-088-633-658-670-052200-
MARINE OBSERVATIONS

STATION/POSITION TIME  TEMP    WIND        PRES    WAVE   SWELL
                       AIR SEA DIR/SP/G            HT/PER HT/PER
                 (UTC) (F)     (DEG/KT/KT) (MB)    (FT/S) (FT/S)
CHESAPEAKE LIGHT 2100   76     110/ 10/ 11 1020.1
64 E VA BEACH    2050   78 77  140/  6/  8 1019.5    3/ 8   3/ 8
DUCK             2100   82 80  100/ 12/ 13   N/A
2 E DUCK         2011      79                N/A     2/ 9
OREGON INLET     2100   82 80  190/ 14/ 18 1019.0
13E OREGON INLT  2100      79                N/A     3/ 6
HATTERAS CG      2100   81 80  200/  8/ 11 1019.3
DIAMOND BUOY     2050   81 81  220/ 14/ 16 1019.8    3/ 5   2/ 9
CAPE LOOKOUT     2100   82     200/ 12/ 15 1019.2
BEAUFORT LAB     2100   81 82  200/ 13/ 15 1018.6
30 SE NEW RVR IN NOT AVBL
27 SE WRIGHTSVLE 2100      81  210/ 12/ 16   N/A
5 SE WRIGHTSVLE  NOT AVBL
225 S CAPE HAT   2050   81 80  180/ 10/ 12 1022.6    4/ 9   3/ 9
41 SE CHARLESTON 2050   82 83  190/ 14/ 16 1019.5    3/ 9   2/ 9

$$



USA.gov is the U.S. government's official web portal to all federal, state and local government web resources and services.